Regional Weather Roundup
Issued by NWS

Home | Current Version | Previous Version | Text Only | Print | Product List | Glossary Off
Versions: 1 2 3 4 5 6 7 8 9 10 11 12 13 14 15 16 17 18 19 20 21 22 23 24 25 26 27

000
ASUS45 KBOU 271407
RWRCO

WEATHER ROUNDUP FOR COLORADO
NATIONAL WEATHER SERVICE DENVER/BOULDER CO
800 AM MDT SAT AUG 27 2016

NOTE: "FAIR" INDICATES FEW OR NO CLOUDS BELOW 12000 FEET WITH NO
SIGNIFICANT WEATHER AND/OR OBSTRUCTIONS TO VISIBILITY.

COZ001>005-013-030-031-271500-
...NORTHWEST COLORADO...

CITY           SKY/WX    TMP DP  RH WIND       PRES   REMARKS
CRAIG          FAIR      47  40  76 CALM      30.26R
HAYDEN         FAIR      48  36  61 E10       30.27R
MEEKER         FAIR      46  41  82 E3        30.27R
MOUNT WERNER   NOT AVBL
STEAMBOAT SPGS FAIR      42  37  83 CALM      30.29R
WALDEN         FAIR      43  32  65 CALM      30.35R
$$

COZ006>008-011-271500-
...WEST CENTRAL VALLEYS...

CITY           SKY/WX    TMP DP  RH WIND       PRES   REMARKS
GRAND JUNCTION FAIR      58  48  69 CALM      30.19R
MONTROSE       FAIR      54  45  71 S3        30.25R
EAGLE          SUNNY     46  43  87 CALM      30.33R
RIFLE          FAIR      50  49  96 E3        30.26R
DELTA          NOT AVBL
NUCLA          FAIR     N/A N/A N/A CALM      30.26R
$$

COZ017>023-064>068-271500-
...SOUTHWEST COLORADO...

CITY           SKY/WX    TMP DP  RH WIND       PRES   REMARKS
DURANGO        FAIR      52  44  74 CALM      30.26R
CORTEZ         CLOUDY    54  51  90 CALM      30.22R
PAGOSA SPRINGS FAIR      48  47  96 CALM      30.33R
TELLURIDE      FAIR      47  42  82 E5        30.40R
WOLF CREEK PAS FAIR      37  34  87 SW9       30.56R
$$

COZ009-010-012-014-032>034-037-058>063-271500-
...CENTRAL COLORADO...

CITY           SKY/WX    TMP DP  RH WIND       PRES   REMARKS
ASPEN          FAIR      45  40  82 CALM      30.33R
BUENA VISTA    FAIR      47  37  68 N8        30.33S
COPPER MTN     FAIR      45  32  61 W9        30.53R
BERTHOUD PASS  FAIR      34  21  60 N16       30.53R WCI  23
COTTONWOOD PAS FAIR      50  32  50 CALM      30.41S
GUNNISON       FAIR      45  37  76 CALM      30.38S
KREMMLING      FAIR      41  36  81 CALM      30.36R
LEADVILLE      FAIR      39  32  76 N6        30.41R
MONARCH PASS   FAIR      36  32  87 W18       30.62R
SALIDA         FAIR      51  37  58 NW13      30.38R
SUNLIGHT       FAIR      41  37  87 NE5       30.50R
WILKERSON PASS FAIR      41  30  65 W7        30.51R
$$

COZ069>075-271500-
...SAN LUIS VALLEY/SANGRE DE CRISTO MOUNTAINS...

CITY           SKY/WX    TMP DP  RH WIND       PRES   REMARKS
ALAMOSA        FAIR      43  39  86 CALM      30.32R
LA VETA PASS   FAIR      43  39  87 SW7       30.42R
SAGUACHE       FAIR      52  41  66 NW3       30.34R
$$

COZ035-036-038>040-271500-
...NORTHERN COLORADO FRONT RANGE...

CITY           SKY/WX    TMP DP  RH WIND       PRES   REMARKS
DENVER INTL AP FAIR      59  46  62 SW8       30.14R
DMNS CITY PARK   N/A     58  44  60 SW3G10    30.14R
AURORA         MOSUNNY   58  46  64 S7        30.15S
FRONT RANGE AP MOSUNNY   61  46  59 S7        30.15
ERIE MUNI ARPT FAIR      56  48  73 CALM      30.13R
BOULDER MUN AP FAIR      55  48  76 E3        30.13R
CENTENNIAL     FAIR      58  44  60 SE6       30.16S
BROOMFIELD     MOSUNNY   57  46  67 CALM      30.15R
FORT COLLINS   FAIR      52  50  93 N6        30.13S
LONGMONT       FAIR      58  47  68 CALM      30.14R
$$

COZ041-046-047-076>085-087-088-271500-
...PIKES PEAK/PALMER DIVIDE AND SOUTHERN FOOTHILLS...

CITY           SKY/WX    TMP DP  RH WIND       PRES   REMARKS
COLO. SPRINGS  FAIR      62  48  60 N5        30.19S
A. F. ACADEMY  FAIR      56  44  64 SE5       30.20R
SCHRIEVER AFB  NOT AVBL
ELLICOTT       NOT AVBL
FALCON         FAIR      61  50  65 NW3       30.23S
FORT CARSON    FAIR      57  45  62 NW7       30.16R
LIMON          FAIR      59  52  77 N6        30.14R
MONUMENT HILL  FAIR      59  41  51 W3        30.24S
TRINIDAD       FAIR      57  44  62 W12       30.17S
$$

COZ042>045-048>051-090-091-271500-
...NORTHEAST COLORADO...

CITY           SKY/WX    TMP DP  RH WIND       PRES   REMARKS
GREELEY ARPT     N/A    N/A N/A N/A CALM      30.12S
AKRON          FAIR      57  51  80 W9        30.11R
BURLINGTON     FOG       56  54  93 SE7       30.10R VSB<1/4
WRAY           FOG      N/A N/A N/A SE7       30.10R VSB 1/4
STERLING       FOG       50  50 100 CALM      30.09R VSB 1/4
HOLYOKE        FOG       59  55  88 SE7       30.10S VSB<1/4
FORT MORGAN    FAIR      55  53  94 CALM      30.12R
$$

COZ086-089-092>099-271500-
...SOUTHEAST COLORADO...

CITY           SKY/WX    TMP DP  RH WIND       PRES   REMARKS
PUEBLO         FAIR      62  48  60 SW5       30.10S
LA JUNTA       FAIR      59  53  80 W5        30.09R
LAMAR          FAIR      56  55  97 W5        30.05R FOG
SPRINGFIELD      N/A     62  57  83 W5        30.07S
$$




USA.gov is the U.S. government's official web portal to all federal, state and local government web resources and services.